Starlink 31305

operational
NORAD ID: 59232 Int'l Des: 2024-049 Owner: SPXS Country: US Constellation: starlink
LEOCIRCULAR

About Starlink 31305

Description loading...

Live Position

Loading 3D Globe...

Upcoming Passes

Altitude History

Altitude vs Time

uPlot chart will show altitude changes over time

Two-Line Element Set

1 59232U 24049B 25302.88549317 -.00001864 00000-0 -58247-4 0 9998
2 59232 43.0009 162.0247 0001303 277.4780 82.5924 15.27565339 92381
Epoch: Oct 29, 2025 • Age: 15 hours

Current Status

Altitude 495.5 km
Velocity 7.62 km/s
Sub-Earth Point -42.87°S, 166.65°W
Launch Date Mar 16, 2024
Age 1.6 years
Type internet

Technical Details

Classification Payload
Mass 730.00 kg
Dry Mass 700.00 kg
Total Mass 730.00 kg
Length 0.30 m
Diameter 4.10 m
Span 29.00 m
Shape Box + pan
Manufacturer SPXS
Bus Type Starlink V2M
Phase Status In Orbit
Owner/State SPXS/US

Large Constellations

Loading constellations...